Regional Weather Roundup
Issued by NWS

Home | Current Version | Previous Version | Graphics & Text | Print | Product List | Glossary On
Versions: 1 2 3 4 5 6 7 8 9 10 11 12 13 14 15 16 17 18 19 20 21 22 23 24 25 26 27 28 29 30 31 32 33 34 35 36 37 38 39 40 41 42 43 44 45 46 47 48 49 50
000
ASUS43 KFSD 240010
RWRSD

WEATHER ROUNDUP FOR SOUTH DAKOTA
NATIONAL WEATHER SERVICE SIOUX FALLS SD
600 PM CST MON JAN 23 2017

NOTE: "FAIR" INDICATES FEW OR NO CLOUDS BELOW 12,000 FEET WITH NO
SIGNIFICANT WEATHER AND/OR OBSTRUCTIONS TO VISIBILITY.


SDZ001>005-009-010-012>017-240100-
NORTHWEST AND NORTH CENTRAL SOUTH DAKOTA

CITY           SKY/WX    TMP DP  RH WIND       PRES   REMARKS
BUFFALO          N/A     24  20  84 NE10      29.64R WCI  14
FAITH            N/A     26  24  92 NE9       29.71R WCI  17
MOBRIDGE       LGT SNOW  29  24  82 NE9       29.74S WCI  20
$$

SDZ012>016-024>037-041>051-057-063-072>074-240100-
SOUTHWEST AND SOUTH CENTRAL SOUTH DAKOTA

CITY           SKY/WX    TMP DP  RH WIND       PRES   REMARKS
RAPID CTY ARPT CLOUDY    22  20  92 N14       29.67R WCI   9
PIERRE         CLOUDY    30  26  85 E15       29.72R WCI  19
CUSTER         CLOUDY    27  20  75 E12       29.55R WCI  17
ELLSWORTH AFB  CLOUDY    23  21  93 N14       29.67  FOG     WCI  11
PHILIP         CLOUDY    28  27  96 NE10      29.70R WCI  19
PINE RIDGE     CLOUDY    29  28  96 NE7       29.62R WCI  22
SPEARFISH      FOG       21  19  93 NW3       29.66R VSB<1/4
WINNER         CLOUDY    33  28  81 E13       29.69R WCI  24
$$

SDZ004>011-016>023-039-040-240100-
NORTHEAST SOUTH DAKOTA

CITY           SKY/WX    TMP DP  RH WIND       PRES   REMARKS
ABERDEEN       LGT SNOW  29  25  85 E5        29.82R FOG     WCI  24
WATERTOWN      CLOUDY    29  26  89 SE3       29.80R
BROOKINGS      CLOUDY    30  26  85 SE5       29.80S WCI  25
SISSETON         N/A     32  28  85 CALM      29.83R
$$

SDZ017-020-022-023-036>040-048>070-240100-
SOUTHEAST SOUTH DAKOTA

CITY           SKY/WX    TMP DP  RH WIND       PRES   REMARKS
SIOUX FALLS    CLOUDY    31  29  92 SE7       29.81S WCI  24
HURON          CLOUDY    31  28  89 E8        29.78S WCI  23
CHAMBERLAIN    CLOUDY    32  30  92 E14G20    29.71S WCI  22
MITCHELL       CLOUDY    32  29  88 SE13      29.78S WCI  22
YANKTON        MOCLDY    30  27  86 E9        29.79R WCI  22
$$

ABBREVIATIONS USED IN REMARKS
   TC - TEMPERATURE IN CELSIUS
  WCI - WIND CHILL INDEX
   HX - HEAT INDEX
  VSB - VISIBILITY





USA.gov is the U.S. government's official web portal to all federal, state and local government web resources and services.